Weather History for Marshall, TX

Change the Weather History Date:

Saturday, December 22, 2012

  Actual Average (KGGG) Record (KGGG)
Temperature  
Mean Temperature 45 °F 47 °F  
Max Temperature 64 °F 57 °F 80 °F (1931)
Min Temperature 26 °F 36 °F 18 °F (1951)
Degree Days  
Heating Degree Days 20 18  
Month to date heating degree days 367  
Since 1 July heating degree days 739  
Cooling Degree Days 0 0  
Month to date cooling degree days 0  
Year to date cooling degree days 2417  
Growing Degree Days 0 (Base 50)    
Moisture  
Dew Point 28 °F    
Average Humidity 55    
Maximum Humidity 93    
Minimum Humidity 19    
Precipitation  
Precipitation 0.00 in 0.14 in 1.35 in (1907)
Month to date precipitation 3.34  
Year to date precipitation 46.40  
Snow  
Snow 0.00 in - - ()
Month to date snowfall  
Since 1 July snowfall  
Snow Depth -    
Sea Level Pressure  
Sea Level Pressure 30.26 in    
Wind  
Wind Speed 3 mph (SSE)    
Max Wind Speed 14 mph    
Max Gust Speed 22 mph    
Visibility 10 miles    
Events      
T = Trace of Precipitation, MM = Missing Value Source: NWS Daily Summary

Daily Weather History Graph

Daily Weather History Graph

Search for Another Location

Airport:

Trip Planner

Search our weather history database for the weather conditions in past years. The results will help you decide how hot, cold, wet, or windy it might be!

Date:

Astronomy

Dec. 22, 2012 Rise Set
Actual Time 7:15 AM CST 5:16 PM CST
Civil Twilight 6:48 AM CST 5:43 PM CST
Nautical Twilight 6:17 AM CST 6:14 PM CST
Astronomical Twilight 5:47 AM CST 6:44 PM CST
Moon 1:25 PM CST (12/22) 2:11 AM CST (12/22)
Length of Visible Light 10h 55m
Length of Day
10h 00m
Waxing Gibbous, 74% of the Moon is Illuminated
Dec 22
Waxing Gibbous
Dec 28
Full
Jan 4
Last Quarter
Jan 11
New
Jan 18
First Quarter

Hourly Weather History & Observations

Time (CST) Temp. Windchill Dew Point Humidity Pressure Visibility Wind Dir Wind Speed Gust Speed Precip Events Conditions
12:15 AM 32.0 °F - 28.4 °F 87% 30.37 in 10.0 mi Calm Calm - N/A   Clear
12:35 AM 32.0 °F - 28.4 °F 87% 30.37 in 10.0 mi Calm Calm - N/A   Clear
12:55 AM 32.0 °F - 28.4 °F 87% 30.36 in 10.0 mi Calm Calm - N/A   Clear
1:15 AM 32.0 °F - 28.4 °F 87% 30.36 in 10.0 mi Calm Calm - N/A   Clear
1:35 AM 32.0 °F - 28.4 °F 87% 30.36 in 10.0 mi Calm Calm - N/A   Clear
1:55 AM 32.0 °F - 28.4 °F 87% 30.36 in 10.0 mi Calm Calm - N/A   Clear
2:15 AM 32.0 °F - 28.4 °F 87% 30.36 in 10.0 mi Calm Calm - N/A   Clear
2:35 AM 32.0 °F - 28.4 °F 87% 30.35 in 10.0 mi Calm Calm - N/A   Clear
2:55 AM 32.0 °F - 28.4 °F 87% 30.35 in 10.0 mi Calm Calm - N/A   Clear
3:15 AM 32.0 °F - 28.4 °F 87% 30.35 in 10.0 mi Calm Calm - N/A   Clear
3:35 AM 32.0 °F - 28.4 °F 87% 30.34 in 10.0 mi Calm Calm - N/A   Clear
3:55 AM 32.0 °F - 28.4 °F 87% 30.34 in 10.0 mi Calm Calm - N/A   Clear
4:15 AM 28.4 °F - 26.6 °F 93% 30.34 in 10.0 mi Calm Calm - N/A   Clear
4:35 AM 28.4 °F - 26.6 °F 93% 30.34 in 10.0 mi Calm Calm - N/A   Clear
4:55 AM 28.4 °F - 26.6 °F 93% 30.34 in 10.0 mi Calm Calm - N/A   Clear
5:15 AM 28.4 °F - 26.6 °F 93% 30.34 in 10.0 mi Calm Calm - N/A   Clear
5:55 AM 28.4 °F - 24.8 °F 86% 30.34 in 10.0 mi Calm Calm - N/A   Clear
6:35 AM 28.4 °F - 26.6 °F 93% 30.34 in 10.0 mi Calm Calm - N/A   Clear
6:55 AM 26.6 °F - 23.0 °F 86% 30.34 in 10.0 mi Calm Calm - N/A   Clear
7:15 AM 26.6 °F - 23.0 °F 86% 30.35 in 10.0 mi Calm Calm - N/A   Clear
7:35 AM 26.6 °F - 23.0 °F 86% 30.35 in 10.0 mi Calm Calm - N/A   Clear
7:55 AM 26.6 °F - 23.0 °F 86% 30.36 in 10.0 mi Calm Calm - N/A   Clear
8:15 AM 32.0 °F 28.7 °F 26.6 °F 80% 30.36 in 10.0 mi SSE 3.5 mph - N/A   Clear
8:35 AM 32.0 °F - 26.6 °F 80% 30.36 in 10.0 mi Calm Calm - N/A   Clear
8:55 AM 35.6 °F 32.8 °F 30.2 °F 81% 30.36 in 10.0 mi SSE 3.5 mph - N/A   Clear
9:15 AM 37.4 °F 33.8 °F 28.4 °F 70% 30.36 in 10.0 mi SSE 4.6 mph - N/A   Clear
9:35 AM 42.8 °F 39.3 °F 28.4 °F 57% 30.36 in 10.0 mi SSE 5.8 mph - N/A   Clear
9:55 AM 44.6 °F 41.4 °F 26.6 °F 49% 30.36 in 10.0 mi SSE 5.8 mph - N/A   Clear
10:15 AM 46.4 °F 44.3 °F 26.6 °F 46% 30.36 in 10.0 mi SSE 4.6 mph - N/A   Clear
10:35 AM 50.0 °F - 26.6 °F 40% 30.36 in 10.0 mi SSE 5.8 mph - N/A   Clear
10:55 AM 51.8 °F - 26.6 °F 38% 30.35 in 10.0 mi South 4.6 mph - N/A   Clear
11:15 AM 55.4 °F - 21.2 °F 26% 30.33 in 10.0 mi South 11.5 mph - N/A   Clear
11:35 AM 55.4 °F - 21.2 °F 26% 30.32 in 10.0 mi SSW 9.2 mph - N/A   Clear
11:55 AM 57.2 °F - 21.2 °F 25% 30.31 in 10.0 mi SSW 6.9 mph - N/A   Clear
12:15 PM 62.6 °F - 19.4 °F 19% 30.29 in 10.0 mi South 11.5 mph 19.6 mph N/A   Clear
12:35 PM 62.6 °F - 19.4 °F 19% 30.28 in 10.0 mi SSW 10.4 mph 19.6 mph N/A   Clear
12:55 PM 60.8 °F - 19.4 °F 20% 30.27 in 10.0 mi SSW 10.4 mph 17.3 mph N/A   Clear
1:15 PM 62.6 °F - 23.0 °F 22% 30.26 in 10.0 mi South 9.2 mph - N/A   Clear
1:35 PM 64.4 °F - 24.8 °F 22% 30.24 in 10.0 mi South 8.1 mph - N/A   Clear
1:55 PM 64.4 °F - 23.0 °F 21% 30.23 in 10.0 mi SSW 9.2 mph 18.4 mph N/A   Clear
2:15 PM 64.4 °F - 23.0 °F 21% 30.22 in 10.0 mi South 11.5 mph 21.9 mph N/A   Clear
2:35 PM 64.4 °F - 23.0 °F 21% 30.21 in 10.0 mi SSW 13.8 mph 18.4 mph N/A   Clear
2:55 PM 64.4 °F - 24.8 °F 22% 30.20 in 10.0 mi South 12.7 mph - N/A   Clear
3:15 PM 64.4 °F - 26.6 °F 24% 30.19 in 10.0 mi South 10.4 mph - N/A   Clear
3:35 PM 64.4 °F - 28.4 °F 26% 30.19 in 10.0 mi SSW 11.5 mph - N/A   Clear
3:55 PM 64.4 °F - 30.2 °F 28% 30.19 in 10.0 mi South 13.8 mph 17.3 mph N/A   Clear
4:15 PM 62.6 °F - 30.2 °F 30% 30.18 in 10.0 mi South 9.2 mph - N/A   Clear
4:35 PM 62.6 °F - 30.2 °F 30% 30.18 in 10.0 mi South 6.9 mph - N/A   Clear
4:55 PM 59.0 °F - 30.2 °F 34% 30.19 in 10.0 mi SSE 6.9 mph - N/A   Clear
5:15 PM 55.4 °F - 30.2 °F 38% 30.19 in 10.0 mi SSE 4.6 mph - N/A   Clear
5:35 PM 55.4 °F - 32.0 °F 41% 30.19 in 10.0 mi SSE 3.5 mph - N/A   Clear
5:55 PM 55.4 °F - 30.2 °F 38% 30.19 in 10.0 mi SSE 3.5 mph - N/A   Clear
6:15 PM 55.4 °F - 30.2 °F 38% 30.18 in 10.0 mi SE 3.5 mph - N/A   Clear
6:35 PM 55.4 °F - 30.2 °F 38% 30.17 in 10.0 mi SE 4.6 mph - N/A   Clear
6:55 PM 55.4 °F - 30.2 °F 38% 30.17 in 10.0 mi SE 4.6 mph - N/A   Clear
7:15 PM 55.4 °F - 30.2 °F 38% 30.17 in 10.0 mi SE 5.8 mph - N/A   Clear
7:35 PM 55.4 °F - 26.6 °F 33% 30.16 in 10.0 mi SE 5.8 mph - N/A   Clear
7:55 PM 55.4 °F - 28.4 °F 36% 30.16 in 10.0 mi SSE 6.9 mph - N/A   Clear
8:15 PM 55.4 °F - 28.4 °F 36% 30.15 in 10.0 mi SE 5.8 mph - N/A   Clear
8:35 PM 55.4 °F - 30.2 °F 38% 30.15 in 10.0 mi SSE 8.1 mph - N/A   Clear
8:55 PM 55.4 °F - 30.2 °F 38% 30.15 in 10.0 mi SSE 6.9 mph - N/A   Clear
9:15 PM 55.4 °F - 32.0 °F 41% 30.15 in 10.0 mi SSE 8.1 mph - N/A   Clear
9:35 PM 55.4 °F - 35.6 °F 47% 30.14 in 10.0 mi SSE 6.9 mph - N/A   Clear
9:55 PM 55.4 °F - 35.6 °F 47% 30.15 in 10.0 mi SSE 6.9 mph - N/A   Clear
10:15 PM 55.4 °F - 37.4 °F 51% 30.15 in 10.0 mi SSE 6.9 mph - N/A   Clear
10:35 PM 55.4 °F - 41.0 °F 58% 30.14 in 10.0 mi SSE 8.1 mph - N/A   Mostly Cloudy
10:55 PM 55.4 °F - 41.0 °F 58% 30.14 in 10.0 mi South 9.2 mph - N/A   Overcast
11:15 PM 55.4 °F - 42.8 °F 63% 30.14 in 10.0 mi SSE 6.9 mph - N/A   Mostly Cloudy
11:35 PM 55.4 °F - 42.8 °F 63% 30.14 in 10.0 mi SSE 11.5 mph - N/A   Mostly Cloudy
11:55 PM 55.4 °F - 42.8 °F 63% 30.12 in 10.0 mi SSE 10.4 mph - N/A   Mostly Cloudy